Hourly Data Report for August 08, 2018

CLYDE RIVER A
NUNAVUT
Current Station Operator: NAVCAN

70°29'09.000" N
68°31'01.000" W
26.50 m
2400804
71090
YCY

Download Data

Hourly Data (August 2018)
Hourly Data Report for August 8, 2018
TIME
LST
Temp Definition
°C
Dew Point Definition
°C
Rel Hum Definition
%
Precip. Amount Definition
mm

Wind Dir Definition
10's deg

Wind Spd Definition
km/h
Visibility Definition
km
Stn Press Definition
kPa
Hmdx Definition


Wind Chill Definition


Weather Definition


00:00 2.9 1.1 88 0.0 30 8 16.1 99.79     LegendNANA
01:00 2.5 0.9 89 0.0 33 11 16.1 99.81     LegendNANA
02:00 1.9 0.4 90 0.0 31 17 16.1 99.82     LegendNANA
03:00 2.7 0.9 88 0.0 30 11 16.1 99.86     LegendNANA
04:00 3.5 1.4 86 0.0 31 11 16.1 99.88     LegendNANA
05:00 4.2 1.7 84 0.0 31 15 16.1 99.88     LegendNANA
06:00 5.4 1.9 78 0.0 31 15 16.1 99.89     LegendNANA
07:00 6.9 2.3 72 0.0 32 17 16.1 99.90     LegendNANA
08:00 8.4 2.3 66 0.0 33 17 16.1 99.91     LegendNANA
09:00 9.1 1.8 60 0.0 34 9 16.1 99.93     LegendNANA
10:00 9.1 2.9 65 0.0 26 8 16.1 99.94     LegendNANA
11:00 9.0 2.9 65 0.0 36 13 16.1 99.93     LegendNANA
12:00 9.2 2.7 64 0.0 36 8 16.1 99.97     LegendNANA
13:00 9.3 3.1 65 0.0 4 13 16.1 99.99     LegendNANA
14:00 8.9 2.5 64 0.0 1 9 16.1 100.02     LegendNANA
15:00 9.2 2.8 64 0.0 3 11 16.1 100.05     LegendNANA
16:00 7.7 3.1 73 0.0 6 15 16.1 100.07     LegendNANA
17:00 7.7 2.7 71 0.0 4 8 16.1 100.10     LegendNANA
18:00 5.0 2.5 84 0.0 10 9 16.1 100.12     LegendNANA
19:00 4.3 2.9 90 0.0 11 11 16.1 100.14     LegendNANA
20:00 4.7 3.1 89 0.0 13 5 16.1 100.14     LegendNANA
21:00 4.7 3.2 90 0.0 LegendMM 4 16.1 100.12     LegendNANA
22:00 3.5 2.9 96 0.0 11 9 16.1 100.11     LegendNANA
23:00 3.2 3.1 99 0.0 9 9 16.1 100.11     LegendNANA

Notes on Data Quality.

Legend

  • E = Estimated
  • M = Missing
  • NA = Not Available*
  • [empty] = Indicates an unobserved value
Date modified: